Weather History for PAHO - September, 2012

Change the Weather History Date:

Thursday, September 13, 2012

  Actual Average (PANC) Record (PANC)
Temperature  
Mean Temperature 48 °F 50 °F  
Max Temperature 55 °F 56 °F 66 °F (2010)
Min Temperature 42 °F 43 °F 26 °F (1928)
Degree Days  
Heating Degree Days 17    
Month to date heating degree days  
Since 1 July heating degree days  
Cooling Degree Days 0    
Month to date cooling degree days  
Year to date cooling degree days  
Moisture  
Dew Point 43 °F    
Average Humidity 80    
Maximum Humidity 90    
Minimum Humidity 61    
Precipitation  
Precipitation 0.00 in 0.09 in 1.32 in (1982)
Month to date precipitation 1.31  
Year to date precipitation 10.60  
Snow  
Snow 0.00 in 0.00 in 0.00 in ()
Month to date snowfall 0.0  
Since 1 June snowfall 0.0  
Since 1 July snowfall 0.0  
Snow Depth -    
Sea Level Pressure  
Sea Level Pressure 29.82 in    
Wind  
Wind Speed 2 mph (ENE)    
Max Wind Speed 9 mph    
Max Gust Speed -    
Visibility 10 miles    
Events      
T = Trace of Precipitation, MM = Missing Value Source: NWS Daily Summary

Daily Weather History Graph

Daily Weather History Graph

Search for Another Location

Airport or City:

Trip Planner

Search our weather history database for the weather conditions in past years. The results will help you decide how hot, cold, wet, or windy it might be!

Date:

Astronomy

Sep. 13, 2012 Rise Set
Actual Time 7:31 AM AKDT 8:30 PM AKDT
Civil Twilight 6:49 AM AKDT 9:12 PM AKDT
Nautical Twilight 5:57 AM AKDT 10:03 PM AKDT
Astronomical Twilight 4:58 AM AKDT 11:01 PM AKDT
Moon 4:35 AM AKDT (9/13) 7:14 PM AKDT (9/13)
Length of Visible Light 14h 23m
Length of Day
12h 59m
Waning Crescent, 6% of the Moon is Illuminated
Sep 13
Waning Crescent
Sep 15
New
Sep 22
First Quarter
Sep 29
Full
Oct 7
Last Quarter

Hourly Weather History & Observations

Time (AKDT) Temp. Windchill Dew Point Humidity Pressure Visibility Wind Dir Wind Speed Gust Speed Precip Events Conditions
12:53 AM 46.9 °F - 43.0 °F 86% 29.79 in 10.0 mi Calm Calm - N/A   Overcast
1:53 AM 46.9 °F - 42.1 °F 83% 29.80 in 10.0 mi Calm Calm - N/A   Overcast
2:53 AM 48.0 °F - 43.0 °F 83% 29.80 in 10.0 mi NE 3.5 mph - N/A   Overcast
3:40 AM 46.4 °F 44.3 °F 42.8 °F 87% 29.80 in 10.0 mi ENE 4.6 mph - N/A   Overcast
3:53 AM 46.9 °F - 43.0 °F 86% 29.81 in 10.0 mi Calm Calm - N/A   Overcast
4:53 AM 46.9 °F - 42.1 °F 83% 29.81 in 10.0 mi NE 3.5 mph - N/A   Overcast
5:53 AM 45.0 °F - 42.1 °F 90% 29.81 in 10.0 mi Calm Calm - N/A   Overcast
6:53 AM 44.1 °F 42.5 °F 41.0 °F 89% 29.81 in 10.0 mi NE 3.5 mph - N/A   Scattered Clouds
7:53 AM 42.1 °F - 39.0 °F 89% 29.82 in 10.0 mi Calm Calm - N/A   Mostly Cloudy
8:53 AM 45.0 °F - 39.9 °F 82% 29.82 in 10.0 mi Calm Calm - N/A   Partly Cloudy
9:53 AM 48.9 °F - 44.1 °F 83% 29.83 in 10.0 mi East 3.5 mph - N/A   Clear
10:53 AM 52.0 °F - 43.0 °F 71% 29.84 in 10.0 mi Calm Calm - N/A   Clear
11:53 AM 52.0 °F - 43.0 °F 71% 29.84 in 10.0 mi ESE 5.8 mph - N/A   Clear
12:53 PM 51.1 °F - 43.0 °F 74% 29.84 in 10.0 mi ESE 4.6 mph - N/A   Scattered Clouds
1:53 PM 53.1 °F - 39.9 °F 61% 29.84 in 10.0 mi Calm Calm - N/A   Scattered Clouds
2:53 PM 53.1 °F - 42.1 °F 66% 29.83 in 10.0 mi SW 4.6 mph - N/A   Mostly Cloudy
3:53 PM 54.0 °F - 44.1 °F 69% 29.83 in 10.0 mi West 8.1 mph - N/A   Mostly Cloudy
4:53 PM 54.0 °F - 45.0 °F 72% 29.82 in 10.0 mi SW 8.1 mph - N/A   Partly Cloudy
5:53 PM 54.0 °F - 43.0 °F 66% 29.82 in 10.0 mi WSW 6.9 mph - N/A   Scattered Clouds
6:53 PM 52.0 °F - 46.9 °F 83% 29.81 in 10.0 mi West 9.2 mph - N/A   Scattered Clouds
7:53 PM 51.1 °F - 45.0 °F 80% 29.81 in 10.0 mi West 3.5 mph - N/A   Overcast
8:53 PM 50.0 °F - 45.0 °F 83% 29.81 in 10.0 mi Calm Calm - N/A   Scattered Clouds
9:53 PM 50.0 °F - 44.1 °F 80% 29.81 in 10.0 mi Calm Calm - N/A   Mostly Cloudy
10:53 PM 45.0 °F 43.5 °F 41.0 °F 86% 29.81 in 10.0 mi NE 3.5 mph - N/A   Mostly Cloudy
11:16 PM 46.4 °F - 42.8 °F 87% 29.81 in 10.0 mi Calm Calm - N/A   Mostly Cloudy
11:53 PM 46.0 °F - 42.1 °F 86% 29.81 in 10.0 mi Calm Calm - N/A   Partly Cloudy